This is the latest recevied weather packets stored in our database for station/object PA5MB-15. If no packets are shown the sender has not sent any weather packets the latest 10 day(s).
| Time | Temp. | Humidity | Pressure | Rain* | Wind** | Luminosity | Snow |
|---|---|---|---|---|---|---|---|
| 1777710330 | 17.78° C | 76% | 1019.9 hPa | 0 mm | - | 16 W/m² | - |
| 1777710032 | 17.78° C | 76% | 1020 hPa | 0 mm | - | 16 W/m² | - |
| 1777709736 | 17.78° C | 77% | 1020 hPa | 0 mm | - | 14 W/m² | - |
| 1777709451 | 17.78° C | 76% | 1020 hPa | 0 mm | - | 15 W/m² | - |
| 1777709134 | 17.78° C | 75% | 1020 hPa | 0 mm | - | 21 W/m² | - |
| 1777708824 | 17.22° C | 75% | 1020 hPa | 0 mm | - | 31 W/m² | - |
| 1777708533 | 17.22° C | 75% | 1020 hPa | 0 mm | - | 18 W/m² | - |
| 1777708239 | 17.78° C | 73% | 1019.9 hPa | 0 mm | - | 16 W/m² | - |
| 1777707933 | 17.22° C | 73% | 1019.9 hPa | 0 mm | - | 24 W/m² | - |
| 1777707634 | 16.67° C | 73% | 1019.9 hPa | 0 mm | - | 30 W/m² | - |
| 1777707338 | 16.67° C | 73% | 1019.9 hPa | 0 mm | - | 20 W/m² | - |
| 1777707032 | 17.22° C | 71% | 1019.9 hPa | 0 mm | - | 20 W/m² | - |
| 1777706736 | 16.67° C | 70% | 1019.9 hPa | 0 mm | - | 20 W/m² | - |
| 1777706427 | 16.67° C | 70% | 1019.9 hPa | 0 mm | - | 21 W/m² | - |
| 1777706133 | 16.11° C | 69% | 1019.9 hPa | 0 mm | - | 22 W/m² | - |
| 1777705832 | 15.56° C | 70% | 1019.9 hPa | 0 mm | - | 23 W/m² | - |
| 1777705531 | 15.56° C | 71% | 1019.9 hPa | 0 mm | - | 15 W/m² | - |
| 1777705231 | 15.56° C | 71% | 1019.8 hPa | 0 mm | - | 13 W/m² | - |
| 1777704933 | 15° C | 72% | 1019.8 hPa | 0 mm | - | 9 W/m² | - |
| 1777704627 | 15° C | 74% | 1019.8 hPa | 0 mm | - | 7 W/m² | - |
| 1777704333 | 15° C | 75% | 1019.8 hPa | 0 mm | - | 7 W/m² | - |
| 1777704033 | 15° C | 74% | 1019.7 hPa | 0 mm | - | 7 W/m² | - |
| 1777703745 | 15° C | 73% | 1019.8 hPa | 0 mm | - | 7 W/m² | - |
| 1777703431 | 14.44° C | 72% | 1019.7 hPa | 0 mm | - | 8 W/m² | - |
| 1777703131 | 14.44° C | 71% | 1019.8 hPa | 0 mm | - | 7 W/m² | - |
* Rain latest hour (hover to see other rain measurements)
** Current wind speed in m/s (hover to see current wind gust speed)